FW1957 Weather Reports


Display with metric or nautical units.
time (UTC)temp
F
wind
direction
speed
MPH
gust
MPH
rain 1hr
in
rain 24hr
in
rain mn
in
humidity
%
barometer
mb
20260509011714 51 0 2.0 4.0 0.00 0.01 0.00 84 1016.1
20260509011218 52 355 2.0 4.0 0.00 0.01 0.00 84 1016.1
20260509010216 52 355 2.0 4.0 0.00 0.01 0.00 83 1016.1
20260509004718 52 0 1.0 3.0 0.00 0.01 0.00 83 1016.0
20260509003216 53 333 2.0 4.0 0.00 0.01 0.00 83 1016.0
20260509002717 53 313 3.0 4.0 0.00 0.01 0.00 83 1016.0
20260509002208 53 333 2.0 4.0 0.00 0.01 0.00 83 1016.0
20260509001708 53 339 2.0 3.0 0.00 0.01 0.00 82 1016.0
20260509001219 53 332 2.0 3.0 0.00 0.01 0.00 82 1016.1
20260509000707 53 343 1.0 3.0 0.00 0.01 0.00 82 1016.0
20260508234719 53 305 3.0 5.0 0.00 0.01 0.01 82 1016.1
20260508234210 53 333 3.0 5.0 0.00 0.01 0.01 82 1016.1
20260508233715 53 331 2.0 4.0 0.00 0.01 0.01 82 1016.0
20260508233210 53 340 2.0 4.0 0.00 0.01 0.01 82 1016.0
20260508232706 54 343 3.0 4.0 0.00 0.01 0.01 82 1016.0
20260508232207 54 338 2.0 3.0 0.00 0.01 0.01 82 1016.0
20260508231707 54 336 2.0 3.0 0.00 0.01 0.01 82 1016.1
20260508231301 54 329 2.0 3.0 0.00 0.01 0.01 82 1016.1
20260508230244 54 317 1.0 4.0 0.00 0.01 0.01 82 1016.1
20260508225708 54 321 1.0 4.0 0.00 0.01 0.01 82 1016.1
20260508225208 54 337 2.0 4.0 0.00 0.01 0.01 82 1016.1
20260508224708 54 332 2.0 3.0 0.00 0.01 0.01 82 1016.1
20260508224206 54 333 2.0 4.0 0.00 0.01 0.01 83 1016.1
20260508223711 54 322 2.0 4.0 0.00 0.01 0.01 83 1016.1
20260508223205 54 328 2.0 4.0 0.00 0.01 0.01 83 1016.1
20260508222714 54 345 2.0 4.0 0.00 0.01 0.01 83 1016.1
20260508222213 54 337 2.0 4.0 0.00 0.01 0.01 84 1016.1
20260508221718 54 348 2.0 4.0 0.00 0.01 0.01 84 1016.1
20260508221216 54 338 2.0 5.0 0.00 0.01 0.01 85 1016.1
20260508220705 54 0 2.0 5.0 0.00 0.01 0.01 85 1016.1
20260508215713 54 339 2.0 5.0 0.00 0.01 0.01 85 1016.1
20260508214211 55 355 3.0 8.0 0.00 0.01 0.01 85 1016.1
20260508213713 55 336 3.0 8.0 0.00 0.01 0.01 85 1016.0
20260508213209 55 12 3.0 6.0 0.00 0.01 0.01 85 1016.0
20260508212709 55 299 3.0 4.0 0.00 0.01 0.01 85 1015.8
20260508212206 55 277 2.0 4.0 0.00 0.01 0.01 84 1015.8
20260508211719 55 270 2.0 5.0 0.00 0.01 0.01 84 1015.8
20260508211213 55 292 2.0 6.0 0.00 0.01 0.01 84 1015.8
20260508210709 55 271 3.0 6.0 0.00 0.01 0.01 84 1015.7
20260508210211 56 251 3.0 5.0 0.00 0.01 0.01 84 1015.7
20260508205720 56 266 3.0 5.0 0.00 0.01 0.01 84 1015.7
20260508205214 56 252 4.0 5.0 0.00 0.01 0.01 84 1015.7
20260508204212 56 254 3.0 4.0 0.00 0.01 0.01 83 1015.7
20260508203709 57 251 3.0 4.0 0.00 0.01 0.01 83 1015.6
20260508203212 57 232 2.0 6.0 0.00 0.01 0.01 83 1015.6
20260508202708 57 237 3.0 6.0 0.00 0.01 0.01 83 1015.6
20260508202219 57 223 3.0 8.0 0.00 0.01 0.01 83 1015.6
20260508201712 57 220 3.0 8.0 0.00 0.01 0.01 83 1015.5
20260508201206 57 234 4.0 8.0 0.00 0.02 0.01 82 1015.5
20260508200718 58 244 5.0 7.0 0.00 0.02 0.01 82 1015.4
20260508200208 58 246 4.0 6.0 0.00 0.02 0.01 81 1015.3
20260508195717 58 232 2.0 4.0 0.00 0.02 0.01 81 1015.3
20260508195206 59 241 1.0 2.0 0.00 0.02 0.01 80 1015.3
20260508193709 59 248 3.0 4.0 0.00 0.02 0.01 80 1015.2
20260508193207 59 235 2.0 3.0 0.00 0.02 0.01 79 1015.1
20260508192718 60 219 1.0 3.0 0.00 0.02 0.01 79 1015.0
20260508192212 60 219 2.0 3.0 0.00 0.02 0.01 79 1015.0
20260508191711 60 231 2.0 3.0 0.00 0.02 0.01 78 1014.9
20260508191217 60 231 2.0 4.0 0.00 0.03 0.01 78 1014.9
20260508190717 60 231 2.0 4.0 0.00 0.04 0.01 77 1014.8
20260508190208 60 230 3.0 5.0 0.00 0.04 0.01 77 1014.8
20260508185717 60 219 3.0 7.0 0.00 0.06 0.01 77 1014.8
20260508185213 60 218 4.0 7.0 0.00 0.06 0.01 76 1014.8
20260508184714 60 209 3.0 5.0 0.00 0.07 0.01 76 1014.6
20260508183710 61 172 1.0 3.0 0.00 0.09 0.01 76 1014.5
20260508183217 61 219 2.0 5.0 0.00 0.10 0.01 75 1014.4
20260508182719 61 196 2.0 5.0 0.00 0.10 0.01 74 1014.4
20260508182217 62 203 2.0 6.0 0.00 0.11 0.01 74 1014.3
20260508181708 62 217 3.0 6.0 0.00 0.13 0.01 73 1014.3
20260508181209 62 219 3.0 6.0 0.00 0.14 0.01 72 1014.2
20260508180705 62 220 4.0 6.0 0.00 0.15 0.01 71 1014.1
20260508180205 62 217 3.0 7.0 0.00 0.16 0.01 71 1014.0
20260508175716 62 219 2.0 7.0 0.00 0.17 0.01 71 1014.0
20260508175218 62 236 3.0 10.0 0.00 0.18 0.01 70 1013.9
20260508174708 62 224 4.0 10.0 0.00 0.20 0.01 69 1013.9
20260508174215 63 204 6.0 12.0 0.00 0.20 0.01 68 1013.9
20260508173708 63 211 7.0 12.0 0.00 0.22 0.01 68 1013.9
20260508173205 63 219 6.0 12.0 0.00 0.24 0.01 67 1013.9
20260508172716 64 220 5.0 10.0 0.00 0.26 0.01 67 1013.7
20260508172210 65 142 4.0 8.0 0.00 0.28 0.01 65 1013.6
20260508171213 67 211 2.0 4.0 0.00 0.32 0.01 62 1013.6
20260508170707 67 167 2.0 4.0 0.00 0.34 0.01 58 1013.6
20260508170208 67 139 2.0 6.0 0.00 0.35 0.01 57 1013.5
20260508165719 67 135 2.0 7.0 0.00 0.36 0.01 57 1013.6
20260508165218 67 108 3.0 7.0 0.00 0.38 0.01 57 1013.6
20260508164709 68 104 4.0 7.0 0.00 0.39 0.01 56 1013.6
20260508164217 68 117 3.0 7.0 0.00 0.39 0.01 56 1013.6
20260508163707 68 107 3.0 7.0 0.00 0.40 0.01 56 1013.6
20260508163209 68 133 3.0 9.0 0.00 0.41 0.01 54 1013.6
20260508162713 68 127 3.0 9.0 0.00 0.41 0.01 55 1013.6
20260508162219 69 95 4.0 10.0 0.00 0.42 0.01 54 1013.7
20260508161713 69 142 4.0 10.0 0.00 0.43 0.01 54 1013.6
20260508161208 69 140 4.0 10.0 0.00 0.43 0.01 54 1013.6
20260508160714 69 138 4.0 8.0 0.00 0.43 0.01 53 1013.6
20260508160207 70 80 3.0 10.0 0.00 0.44 0.01 53 1013.5
20260508155706 70 94 4.0 10.0 0.00 0.45 0.01 53 1013.5
20260508155210 70 121 5.0 10.0 0.00 0.46 0.01 53 1013.5
20260508154207 69 55 4.0 11.0 0.00 0.48 0.01 52 1013.4
20260508153711 69 85 5.0 11.0 0.00 0.49 0.01 53 1013.3
20260508153207 69 87 4.0 9.0 0.00 0.50 0.01 54 1013.3
20260508152708 69 156 3.0 10.0 0.00 0.50 0.01 55 1013.3
20260508152211 69 67 4.0 10.0 0.00 0.51 0.01 55 1013.3
20260508151714 68 90 4.0 10.0 0.00 0.54 0.01 55 1013.4
20260508151238 69 72 4.0 9.0 0.00 0.54 0.01 56 1013.5
20260508150714 69 123 4.0 9.0 0.00 0.54 0.01 55 1013.5
20260508150212 68 144 4.0 8.0 0.00 0.54 0.01 56 1013.6
20260508145715 68 122 5.0 8.0 0.00 0.54 0.01 56 1013.6
20260508145214 68 99 5.0 8.0 0.00 0.54 0.01 56 1013.7
20260508144709 68 119 3.0 8.0 0.00 0.54 0.01 56 1013.7
20260508143710 68 125 3.0 8.0 0.00 0.54 0.01 55 1013.9
20260508143212 68 149 2.0 7.0 0.00 0.54 0.01 56 1013.9
20260508142717 68 113 2.0 7.0 0.00 0.54 0.01 55 1014.0
20260508141722 69 53 3.0 10.0 0.00 0.54 0.01 54 1014.0
20260508141215 69 50 4.0 10.0 0.00 0.54 0.01 54 1014.0
20260508140710 69 87 5.0 10.0 0.00 0.54 0.01 54 1014.0
20260508140219 69 71 4.0 9.0 0.00 0.54 0.01 53 1014.0
20260508135710 70 91 3.0 9.0 0.00 0.54 0.01 54 1014.0
20260508135206 69 160 5.0 9.0 0.00 0.54 0.01 54 1014.0
20260508134716 69 61 4.0 9.0 0.00 0.54 0.01 55 1014.0
20260508134215 70 55 4.0 8.0 0.00 0.54 0.01 54 1014.0
20260508133717 70 26 4.0 9.0 0.00 0.54 0.01 52 1014.0
20260508132708 71 57 4.0 9.0 0.00 0.54 0.01 52 1014.1
20260508131711 70 46 2.0 8.0 0.00 0.54 0.01 56 1014.2
20260508131220 69 208 3.0 10.0 0.00 0.54 0.01 58 1014.2
20260508130210 68 154 4.0 10.0 0.00 0.54 0.01 57 1014.3
20260508125715 68 135 4.0 10.0 0.00 0.54 0.01 56 1014.3
20260508125215 68 72 6.0 10.0 0.00 0.54 0.01 55 1014.3
20260508124718 69 80 5.0 10.0 0.00 0.54 0.01 53 1014.3
20260508124213 70 84 4.0 10.0 0.00 0.54 0.01 53 1014.4
20260508123716 70 92 6.0 11.0 0.00 0.54 0.01 53 1014.4
20260508123208 71 44 7.0 11.0 0.00 0.54 0.01 53 1014.4
20260508122707 71 99 5.0 11.0 0.00 0.54 0.01 55 1014.4
20260508122212 71 82 3.0 6.0 0.00 0.55 0.01 55 1014.4
20260508121228 70 71 3.0 7.0 0.00 0.56 0.01 54 1014.4
20260508120708 69 69 4.0 7.0 0.00 0.56 0.01 57 1014.4
20260508120218 69 121 3.0 10.0 0.00 0.56 0.01 57 1014.4
20260508115211 68 30 5.0 13.0 0.00 0.56 0.01 56 1014.5
20260508114716 68 56 5.0 13.0 0.00 0.56 0.01 55 1014.5
20260508113707 68 103 4.0 9.0 0.00 0.56 0.01 56 1014.5
20260508113208 68 184 4.0 10.0 0.00 0.56 0.01 57 1014.5
20260508112706 67 67 5.0 12.0 0.00 0.56 0.01 57 1014.6
20260508112218 67 66 6.0 12.0 0.00 0.56 0.01 57 1014.5
20260508110716 67 72 6.0 12.0 0.00 0.56 0.01 56 1014.7
20260508110315 67 74 6.0 11.0 0.00 0.56 0.01 59 1014.7
20260508105715 67 317 5.0 10.0 0.00 0.56 0.01 57 1014.8
20260508105215 67 84 3.0 9.0 0.00 0.56 0.01 58 1014.8
20260508104711 66 94 3.0 9.0 0.00 0.56 0.01 58 1014.9
20260508104212 66 67 4.0 14.0 0.00 0.56 0.01 57 1014.9
20260508103711 67 88 4.0 14.0 0.00 0.56 0.01 58 1014.9
20260508103211 67 90 5.0 14.0 0.00 0.56 0.01 58 1014.9
20260508102712 67 108 5.0 10.0 0.00 0.56 0.01 59 1015.0
20260508102215 67 200 4.0 8.0 0.00 0.56 0.01 60 1015.0
20260508101718 66 115 3.0 7.0 0.00 0.56 0.01 59 1015.0
20260508100209 67 73 3.0 8.0 0.00 0.56 0.01 57 1015.1
20260508095716 67 63 3.0 10.0 0.00 0.56 0.01 59 1015.1
20260508095216 67 171 4.0 10.0 0.00 0.56 0.01 61 1015.1
20260508094206 65 128 4.0 10.0 0.00 0.56 0.01 62 1015.2
20260508093715 65 76 2.0 10.0 0.00 0.56 0.01 62 1015.2
20260508093211 64 269 3.0 11.0 0.00 0.56 0.01 62 1015.3
20260508092710 64 68 5.0 11.0 0.00 0.56 0.01 62 1015.4
20260508092238 64 56 4.0 11.0 0.00 0.56 0.01 63 1015.4
20260508091713 64 34 4.0 10.0 0.00 0.56 0.01 63 1015.4
20260508091213 64 306 4.0 10.0 0.00 0.56 0.01 64 1015.4
20260508090218 63 0 2.0 9.0 0.00 0.56 0.01 64 1015.4
20260508085717 63 153 4.0 9.0 0.00 0.56 0.01 64 1015.5
20260508085209 63 332 3.0 10.0 0.00 0.56 0.01 65 1015.5
20260508084714 63 65 3.0 10.0 0.00 0.56 0.01 65 1015.4
20260508083720 62 84 4.0 10.0 0.00 0.56 0.01 65 1015.3
20260508082706 62 45 4.0 9.0 0.00 0.56 0.01 66 1015.2
20260508082219 62 311 3.0 10.0 0.00 0.56 0.01 68 1015.3
20260508081715 62 22 3.0 10.0 0.00 0.56 0.01 67 1015.3
20260508081206 62 24 3.0 10.0 0.00 0.56 0.01 69 1015.4
20260508080707 62 60 3.0 9.0 0.00 0.56 0.01 70 1015.4
20260508080217 61 299 3.0 9.0 0.00 0.56 0.01 69 1015.4
20260508075217 61 44 4.0 10.0 0.00 0.56 0.01 70 1015.3
20260508074708 61 296 4.0 10.0 0.00 0.56 0.01 71 1015.3
20260508073720 60 330 5.0 9.0 0.00 0.56 0.01 72 1015.3
20260508073214 60 328 5.0 10.0 0.00 0.56 0.01 74 1015.3
20260508072718 59 341 6.0 10.0 0.01 0.56 0.01 75 1015.3
20260508072218 59 338 5.0 9.0 0.01 0.56 0.01 77 1015.4
20260508071210 58 325 5.0 10.0 0.01 0.56 0.01 82 1015.5
20260508070714 57 306 5.0 11.0 0.01 0.56 0.01 83 1015.4
20260508070235 56 15 5.0 14.0 0.01 0.56 0.01 87 1015.5
20260508065719 56 323 6.0 14.0 0.01 0.56 0.01 89 1015.4
20260508065209 55 322 5.0 14.0 0.01 0.56 0.01 91 1015.4
20260508064712 55 355 5.0 9.0 0.01 0.56 0.01 93 1015.4
20260508064205 54 349 5.0 11.0 0.01 0.56 0.01 94 1015.4
20260508063708 53 349 6.0 11.0 0.01 0.56 0.01 94 1015.4
20260508063219 53 315 5.0 11.0 0.00 0.55 0.00 94 1015.4
20260508062708 53 312 3.0 8.0 0.00 0.55 0.00 95 1015.4
20260508062215 53 338 3.0 8.0 0.00 0.55 0.00 95 1015.3
20260508061709 52 334 4.0 8.0 0.00 0.55 0.00 95 1015.3
20260508061213 52 308 4.0 6.0 0.00 0.55 0.00 95 1015.3
20260508060718 51 326 3.0 6.0 0.00 0.55 0.00 95 1015.2
20260508055707 51 69 1.0 3.0 0.00 0.55 0.00 95 1015.2
20260508055217 51 190 1.0 4.0 0.00 0.55 0.00 95 1015.2
20260508054709 50 177 2.0 5.0 0.00 0.55 0.00 95 1015.2
20260508053711 50 238 2.0 5.0 0.00 0.55 0.00 95 1015.2
20260508052808 50 195 1.0 3.0 0.00 0.55 0.00 95 1015.1
20260508052755 49 227 1.0 3.0 0.00 0.55 0.00 95 1015.0
20260508051719 49 200 1.0 2.0 0.00 0.55 0.00 95 1015.0
20260508051216 48 185 0.0 0.0 0.00 0.55 0.00 95 1015.0
20260508050211 48 292 0.0 5.0 0.00 0.55 0.00 94 1015.0
20260508045719 47 292 2.0 5.0 0.00 0.55 0.00 94 1014.9
20260508045215 47 311 2.0 5.0 0.00 0.55 0.00 94 1014.9
20260508044743 47 303 2.0 5.0 0.00 0.55 0.00 94 1014.9
20260508044218 47 300 2.0 5.0 0.00 0.55 0.00 94 1014.8
20260508043716 46 288 2.0 5.0 0.00 0.55 0.00 94 1014.8
20260508042719 46 256 2.0 3.0 0.00 0.55 0.00 94 1014.8
20260508042351 46 257 1.0 2.0 0.00 0.55 0.00 94 1014.8
20260508041716 46 240 1.0 3.0 0.00 0.55 0.00 93 1014.8
20260508041207 46 240 1.0 3.0 0.00 0.55 0.00 94 1014.9
20260508040711 46 240 2.0 4.0 0.00 0.55 0.00 94 1014.8
20260508040218 46 244 2.0 6.0 0.00 0.55 0.00 94 1014.8
20260508035708 46 244 3.0 6.0 0.00 0.55 0.00 94 1014.7
20260508035218 46 261 3.0 6.0 0.00 0.55 0.00 93 1014.7
20260508034737 46 260 3.0 6.0 0.00 0.55 0.00 93 1014.6
20260508034216 46 264 3.0 6.0 0.00 0.55 0.00 93 1014.6
20260508033717 46 278 4.0 6.0 0.00 0.55 0.00 93 1014.6
20260508032719 46 256 4.0 6.0 0.00 0.55 0.00 93 1014.5
20260508032215 46 259 4.0 7.0 0.00 0.55 0.00 93 1014.5
20260508031707 46 246 4.0 7.0 0.00 0.55 0.00 93 1014.4
20260508031240 46 253 4.0 7.0 0.00 0.55 0.00 93 1014.4
20260508030706 46 258 3.0 6.0 0.00 0.55 0.00 93 1014.4
20260508030208 46 294 3.0 5.0 0.00 0.55 0.00 93 1014.3
20260508025730 46 286 3.0 4.0 0.00 0.55 0.00 93 1014.3
20260508025217 46 286 1.0 3.0 0.00 0.55 0.00 93 1014.3
20260508024708 47 319 0.0 2.0 0.00 0.55 0.00 93 1014.2
20260508024206 47 319 1.0 3.0 0.00 0.55 0.00 93 1014.2
20260508023719 47 319 2.0 3.0 0.00 0.55 0.00 93 1014.1
20260508023205 47 319 2.0 3.0 0.00 0.55 0.00 93 1014.0
20260508022711 47 323 2.0 4.0 0.00 0.55 0.00 93 1014.0
20260508022213 47 327 2.0 4.0 0.00 0.55 0.00 93 1014.0
20260508021710 47 324 3.0 4.0 0.00 0.55 0.00 93 1014.1
20260508021212 47 346 3.0 4.0 0.00 0.55 0.00 93 1014.1
20260508020716 47 355 3.0 4.0 0.00 0.55 0.00 93 1014.0
20260508020420 47 355 3.0 4.0 0.00 0.55 0.00 93 1014.1
20260508015206 48 41 1.0 6.0 0.00 0.55 0.00 93 1014.0
20260508015142 48 267 2.0 6.0 0.00 0.55 0.00 93 1014.1
20260508014215 48 317 2.0 3.0 0.00 0.55 0.00 93 1014.1
20260508013717 48 285 1.0 4.0 0.00 0.55 0.00 93 1014.0
20260508013430 48 290 2.0 4.0 0.00 0.55 0.00 93 1013.9
20260508012713 48 292 2.0 3.0 0.00 0.55 0.00 93 1013.9
20260508012207 49 286 2.0 4.0 0.00 0.55 0.00 93 1013.9